Pemberton, British Columbia

11:45 AM PDT on July 26, 2017 (GMT -0700)
Pemberton

Weather History for CWGP - June, 2013

Change the Weather History Date:

Saturday, June 15, 2013

  Actual Average Record
Temperature  
Mean Temperature 62 °F -  
Max Temperature 83 °F 69 °F - ()
Min Temperature 41 °F 46 °F - ()
Degree Days  
Heating Degree Days 3    
Growing Degree Days 12 (Base 50)    
Moisture  
Dew Point 47 °F    
Average Humidity 65    
Maximum Humidity 100    
Minimum Humidity 18    
Precipitation  
Precipitation 0.14 in - - ()
Sea Level Pressure  
Sea Level Pressure 30.00 in    
Wind  
Wind Speed - ()    
Max Wind Speed -    
Max Gust Speed -    
T = Trace of Precipitation, MM = Missing Value Source: Averaged Metar Reports

Daily Weather History Graph

Daily Weather History Graph

Search for Another Location

Airport or City:

Trip Planner

Search our weather history database for the weather conditions in past years. The results will help you decide how hot, cold, wet, or windy it might be!

Date:

Astronomy

Jun. 15, 2013 Rise Set
Actual Time 4:59 AM PDT 9:23 PM PDT
Civil Twilight 4:14 AM PDT 10:08 PM PDT
Nautical Twilight 3:07 AM PDT 11:15 PM PDT
Astronomical Twilight 1:43 AM PDT 12:39 AM PDT
Moon 12:18 PM PDT (6/15) 12:26 AM PDT (6/15)
Length of Visible Light 17h 54m
Length of Day
16h 24m
Waxing Crescent, 40% of the Moon is Illuminated
Jun 15
Waxing Crescent
Jun 16
First Quarter
Jun 23
Full
Jun 29
Last Quarter
Jul 8
New

Hourly Weather History & Observations

Time (PDT) Temp. Dew Point Humidity Pressure Visibility Wind Dir Wind Speed Gust Speed Precip Events Conditions
12:00 AM 48.2 °F 46.4 °F 93% 30.11 in - North - - N/A   Unknown
1:00 AM 46.4 °F 44.6 °F 93% 30.11 in - North - - N/A   Unknown
2:00 AM 44.6 °F 42.8 °F 93% 30.11 in - North - - N/A   Unknown
3:00 AM 44.6 °F 42.8 °F 93% 30.11 in - North - - N/A   Unknown
4:00 AM 42.8 °F 41.0 °F 93% 30.10 in - North - - N/A   Unknown
5:00 AM 42 °F 41 °F 93% 30.10 in - Calm Calm - -  
5:00 AM 42.8 °F 41.0 °F 93% 30.10 in - North - - N/A   Unknown
6:00 AM 41.0 °F 41.0 °F 100% 30.10 in - North - - N/A   Unknown
7:00 AM 44.6 °F 44.6 °F 100% 30.10 in - North - - N/A   Unknown
8:00 AM 51.8 °F 46.4 °F 82% 30.08 in - North - - N/A   Unknown
9:00 AM 59.0 °F 46.4 °F 63% 30.05 in - North - - N/A   Unknown
10:00 AM 62.6 °F 44.6 °F 52% 30.03 in - North - - N/A   Unknown
11:00 AM 67 °F 45 °F 33% 29.99 in - Calm Calm - -  
11:00 AM 68.0 °F 44.6 °F 43% 29.99 in - North - - N/A   Unknown
12:00 PM 71.6 °F 42.8 °F 35% 29.96 in - North - - N/A   Unknown
1:00 PM 77.0 °F 42.8 °F 29% 29.94 in - North - - N/A   Unknown
2:00 PM 80.6 °F 39.2 °F 23% 29.91 in - North - - N/A   Unknown
3:00 PM 80.6 °F 44.6 °F 28% 29.90 in - North - - N/A   Unknown
4:00 PM 82.4 °F 48.2 °F 30% 29.89 in - North - - N/A   Unknown
5:00 PM 81 °F 45 °F 18% 29.88 in - Calm Calm - -  
5:00 PM 80.6 °F 44.6 °F 28% 29.88 in - North - - N/A   Unknown
6:00 PM 78.8 °F 53.6 °F 42% 29.88 in - North - - N/A   Unknown
7:00 PM 73.4 °F 59.0 °F 61% 29.90 in - North - - N/A   Unknown
8:00 PM 68.0 °F 59.0 °F 73% 29.91 in - North - - N/A   Unknown
9:00 PM 64.4 °F 55.4 °F 73% 29.92 in - North - - N/A   Unknown
10:00 PM 59.0 °F 53.6 °F 82% 29.95 in - North - - N/A   Unknown
11:00 PM 57 °F 52 °F 79% 29.97 in - Calm Calm - -  
11:00 PM 57.2 °F 51.8 °F 82% 29.97 in - North - - N/A   Unknown